689  
ASUS42 KKEY 010010  
RWRKEY  
 
FLORIDA REGIONAL WEATHER ROUNDUP FOR THE FLORIDA KEYS  
NATIONAL WEATHER SERVICE KEY WEST FLORIDA  
700 PM EST SAT FEB 28 2015  
   
..SOUTH FLORIDA AND THE KEYS
 
 
 
CITY SKY/WX TMP DP RH WIND PRES REMARKS
 
FORT MYERS RAIN 69 69 100 SE6 30.26R FOG  
SW REGIONAL AP HVY RAIN 70 68 93 E8 30.26R FOG  
NAPLES CLOUDY 72 71 97 NE7 30.23S  
MIAMI CLOUDY 76 71 85 E8 30.23R  
WEST KENDALL CLOUDY 75 71 87 E13 30.23R  
HOMESTEAD PTCLDY 76 71 85 NE12 30.22R  
MARATHON CLEAR 77 73 87 E10 30.20R  
BOCA CHICA NAS PTCLDY 76 72 87 E13 30.19R  
KEY WEST INTL CLEAR 76 73 91 E9 30.19R  
   
..INTERNATIONAL WEATHER
 
 
 
CITY SKY/WX TMP DP RH WIND PRES REMARKS
 
NASSAU BAHAMAS NOT AVBL  
CANCUN MEXICO PTCLDY 79 73 83 E8 30.10R  
COZUMEL MEXICO PTCLDY 75 72 88 E8 30.10R  
 
ADJACENT COASTAL WATERS...  
 
STATION/POSITION TIME SKY/WX TEMP WIND PRES WAVE
 
AIR SEA DIR/SP/G HT/PER  
(UTC) (F) (DEG/KT/KT) (MB) (FT/S)  
PULASKI SHOAL LI 2300 71 50/ 9/ 9 1021.7R  
SAND KEY 2350 75 70/ 13/ 14 1022.1R  
SOMBRERO KEY 0000 75 60/ 15/ 15 1023.0R  
LONG KEY 2300 77 78 90/ 14/ 15 1023.1R  
MOLASSES REEF 0000 76 77 60/ 14/ 16 1022.7R  
FOWEY ROCKS NOT AVBL  
BUOY 42080 NOT AVBL  
 

 
 
CLICK HERE TO GO TO PREVIOUS BULLETINS.

The Nexlab FL Page Main Text Page